www.pogodaiklimat.ru

Погода и климат >> Архив погоды >> Таиланд >> Дои Эн Ханг


ПОГОДА на Дои Эн Ханг

  • Прогноз погоды на Дои Эн Ханг
  • Монитор погоды на Дои Эн Ханг

АРХИВ ПОГОДЫ на Дои Эн Ханг

Время (UTC), дата Ветер
(напр.,м/с)
 
Видим.   Явления Облачность Т
(С)
Тd
(С)
f
(%)
Тe
(С)
Тes
(С)
Комфортность P
(гПа)
Po
(гПа)
Тmin
(С)
Tmax
(С)
R
(мм)
R24
(мм)
S
(см)
06 15.08 З 20 6000 м дымка 8/3 600 м
[Cu Sc Cs]
+21.7 +19.8 89 +27 +27 душно 1003.9 844.6
09 15.08 З 12 8000 м дымка 8/1 600 м
[Cu Sc Cs]
+21.6 +19.1 86 +27 +27 душно 1001.1 842.2
12 15.08 СЗ 25 4000 м гроза, ливневой дождь 10/3 600 м
[Cu Sc Cs]
+18.4 +17.9 97 +17 +17 1003.2 842.4 +24.4 23
15 15.08 СЗ 10 100 м туман ?/? +19.5 +19.5 100 +21 +21 комфорт 1004.1 843.7
18 15.08 СЗ 12 100 м туман ?/? +19.4 +19.4 100 +21 +21 комфорт 1003.3 842.9
21 15.08 СЗ 10 100 м туман ?/? +19.0 +19.0 100 +20 +20 1003.1 842.6
00 16.08 СЗ 10 900 м туман {дождь} ?/? +18.4 +18.4 100 +18 +18 1003.5 842.6 +18.0 7
03 16.08 СЗ 24 900 м слаб. дождь {туман} ?/? +19.3 +19.3 100 +20 +20 1003.6 843.2 2
06 16.08 СЗ 10 2000 м слаб. дождь {туман} 10/1 600 м
[Cu Sc Cs]
+18.5 +18.5 100 +18 +19 1003.3 842.5 6
09 16.08 СЗ 15 100 м туман {дождь} ?/? +19.5 +19.5 100 +21 +21 комфорт 1000.8 840.9 6
12 16.08 СЗ 12 1000 м дымка {дождь, туман} 10/3 600 м
[Cu Sc Cs]
+18.6 +18.6 100 +18 +18 1002.8 842.1 +19.1 15
15 16.08 З 10 1000 м дымка 10/3 600 м
[Cu Sc Cs]
+18.5 +18.3 99 +18 +18 1003.8 842.9
18 16.08 СЗ 18 1000 м дымка 10/3 600 м
[Cu Sc Cs]
+18.8 +18.5 98 +18 +18 1003.3 842.6
21 16.08 СЗ 10 1000 м дымка 10/3 600 м
[Cu Sc Cs]
+18.8 +18.5 98 +19 +19 1003.1 842.4
00 17.08 СЗ 10 100 м туман ?/? +18.9 +18.9 100 +19 +19 1003.3 842.7 +18.2
03 17.08 СЗ 14 5000 м дымка {туман} 10/3 600 м
[Cu Sc Cs]
+20.5 +19.6 95 +24 +24 комфорт 1003.9 844.0
06 17.08 СЗ 8 9000 м дымка {туман} 6/3 600 м
[Cu Sc Cs]
+24.0 +20.1 79 +30 +32 очень
душно
1000.8 843.0
09 17.08 штиль 0 9000 м дымка 6/1 600 м
[Cu Sc Cs]
+24.2 +20.8 81 +30 +39 очень
душно
999.1 841.7
12 17.08 штиль 0 8000 м дымка 6/3 600 м
[Cu Sc Cs]
+21.8 +20.1 90 +27 +27 душно 1001.5 842.6 +25.3
15 17.08 З 6 9000 м дымка 6/1 600 м
[Sc Cs]
+20.5 +18.9 91 +24 +24 комфорт 1004.7 844.7
18 17.08 З 8 8000 м дымка 6/1 600 м
[Sc Cs]
+19.5 +18.2 92 +21 +21 комфорт 1004.7 844.2
21 17.08 З 10 8000 м дымка 6/1 600 м
[Sc Cs]
+19.0 +18.2 95 +20 +20 1004.5 843.8
00 18.08 З 13 8000 м дымка 8/3 600 м
[Sc Cs]
+18.0 +17.2 95 +17 +17 1006.4 844.8 +17.6
03 18.08 З 12 9000 м дымка 5/1 600 м
[Cu Sc Cs]
+20.5 +17.6 83 +23 +23 комфорт 1006.5 846.2
06 18.08 З 7 9000 м дымка 5/1 600 м
[Cu Sc Cs]
+21.3 +18.9 86 +26 +31 душно 1005.1 845.4
09 18.08 З 5 9000 м дымка 5/1 600 м
[Cu Sc Cs]
+22.5 +19.4 83 +29 +32 очень
душно
1002.5 843.8
12 18.08 З 10 9000 м дымка 5/1 600 м
[Cu Sc Cs]
+20.5 +18.1 86 +23 +23 комфорт 1004.0 844.1 +23.0
15 18.08 З 12 9000 м дымка 6/1 600 м
[Sc Cs]
+19.8 +18.5 92 +22 +22 комфорт 1006.2 845.6
18 18.08 З 18 8000 м дымка 6/1 600 м
[Sc Cs]
+19.0 +17.4 90 +19 +19 1005.8 844.8
21 18.08 З 15 8000 м дымка 6/1 600 м
[Sc Cs]
+18.0 +17.2 95 +16 +16 1005.5 844.1
00 19.08 З 16 8000 м дымка 6/1 600 м
[Sc Cs]
+17.8 +17.1 96 +16 +16 1006.5 844.8 +17.4
03 19.08 З 8 12 км 4/1 600 м
[Sc Cs]
+20.5 +17.6 83 +24 +26 комфорт 1005.8 845.6
06 19.08 З 6 12 км 6/1 600 м
[Cu Sc Cs]
+23.0 +18.2 74 +29 +35 очень
душно
1003.5 844.9
09 19.08 З 8 12 км 4/1 600 м
[Cu Sc Cs]
+25.0 +18.0 65 +29 +31 душно 1000.3 843.1
12 19.08 З 5 10 км 5/1 600 м
[Sc Cs]
+21.7 +18.7 83 +27 +27 душно 1002.2 843.1 +25.5
15 19.08 З 7 10 км 5/1 600 м
[Sc Cs]
+20.7 +18.5 87 +24 +24 комфорт 1004.1 844.2
18 19.08 З 14 10 км 5/1 600 м
[Sc Cs]
+20.0 +18.4 91 +22 +22 комфорт 1004.2 843.9
21 19.08 З 12 10 км 5/1 600 м
[Sc Cs]
+19.5 +18.2 92 +21 +21 комфорт 1003.4 843.1
00 20.08 З 13 300 м туман 5/1 600 м
[Sc Cs]
+19.0 +18.5 97 +19 +19 1004.3 843.6 +18.6
03 20.08 СЗ 6 8000 м дымка {туман} 8/3 600 м
[Sc Cs]
+21.0 +19.4 91 +26 +29 душно 1003.8 844.1
06 20.08 СЗ 7 10 км {туман} 5/1 600 м
[Cu Sc Cs]
+24.5 +19.9 76 +30 +35 очень
душно
1000.4 842.9
09 20.08 СЗ 4 10 км 5/3 600 м
[Cu med, cong Cs]
+27.6 +20.6 66 +34 +38 очень
душно
996.4 841.0
12 20.08 штиль 0 8000 м гроза без осадков 8/3 300 м
[Cb cap Cs]
+21.5 +19.9 91 +27 +27 душно 1000.7 841.8 +28.1
15 20.08 штиль 0 6000 м дымка {гроза} 10/3 600 м
[Sc Cs]
+19.0 +18.8 99 +21 +21 комфорт 1003.7 843.1 12
18 20.08 ЮВ 5 6000 м дымка {гроза} 10/3 600 м
[Sc Cs]
+18.2 +17.9 98 +18 +18 1003.2 842.2 4
21 20.08 ЮВ 4 8000 м дымка 10/3 600 м
[Sc Cs]
+18.1 +17.9 99 +18 +18 1002.7 841.7
00 21.08 ЮВ 4 8000 м дымка 10/3 600 м
[Sc Cs]
+18.5 +18.0 97 +19 +20 1003.3 842.4 +18.0
03 21.08 В 8 8000 м дымка 10/3 600 м
[Sc Cs]
+19.1 +18.9 99 +20 +22 1004.0 843.3
06 21.08 ЮВ 5 7000 м дымка {дождь} 10/3 600 м
[Sc Cs]
+19.6 +19.4 99 +22 +28 комфорт 1003.2 843.0 1
09 21.08 ЮВ 8 3000 м дымка 10/3 600 м
[Sc Cs]
+19.2 +19.0 99 +21 +21 комфорт 1002.5 842.1
12 21.08 ЮВ 10 6000 м дымка 10/3 600 м
[Sc Cs]
+18.5 +18.3 99 +18 +18 1003.3 842.5 +20.2
15 21.08 ЮВ 6 6000 м дымка 10/3 600 м
[Sc Cs]
+18.2 +17.9 98 +18 +18 1005.1 843.9
18 21.08 СЗ 2 6000 м дымка 10/3 600 м
[Sc Cs]
+18.1 +17.9 99 +19 +19 1004.3 843.2
21 21.08 ЮВ 4 6000 м дымка 10/3 600 м
[Sc Cs]
+18.0 +17.8 99 +18 +18 1003.2 842.2
00 22.08 ЮВ 3 8000 м дымка 10/3 600 м
[Sc Cs]
+18.4 +18.2 99 +19 +20 1003.8 842.8 +17.9
03 22.08 штиль 0 8000 м дымка 10/3 600 м
[Sc Cs]
+19.3 +19.0 98 +21 +32 комфорт 1004.2 843.6

 

Местоположение метеостанции Дои Эн Ханг (Таиланд): широта 19.92 долгота 99.03 высота над уровнем моря 1530 м.

В архиве по умолчанию представлена погода на Дои Эн Ханг за последнюю неделю. Архивные данные за месяц целиком и за предыдущие месяцы, начиная с января 2011 года, Вы можете получить, выбрав интересующий диапазон дат из раскрывающегося списка и нажав кнопку "Ввод!".


*Определитесь, кто Вы:
робот инопланетянин человек

Внимание! Время в таблицах - всемирное. Для получения местного времени необходимо прибавить поправку, которая равна 7 ч.

Смотрите также архив погоды в соседних городах и на ближайших метеорологических станциях:

Погода в Чианграй Агромете (Таиланд) (79 км)
Погода в Чианграе (Таиланд) (89 км)
Погода в Пхаяу (Таиланд) (127 км)
Погода в Чиангмае (Таиланд) (127 км)
Погода в Мае Хонг Сон (Таиланд) (143 км)
Погода в Лампхуне (Таиланд) (150 км)
Погода в Чёнгтуне (Мьянма) (165 км)
Погода в Намсаме (Мьянма) (173 км)
Погода в Лампанг Агромете (Таиланд) (180 км)
Погода в Лампанге (Таиланд) (190 км)

Пояснения к столбцам:

Ветер - указаны скорость ветра в м/с - средняя за 10 мин, порывы в срок и между сроками (в фигурных скобках) и направление, откуда дует ветер: С - северный, СВ - северо-восточный, В - восточный, ЮВ - юго-восточный, Ю - южный, ЮЗ - юго-западный, З - западный, СЗ - северо-западный.
Видимость - горизонтальная дальность видимости в метрах или километрах. При видимости от 1 до 10 км при отсутствии осадков обычно наблюдается дымка, при ухудшении видимости до 1 км и менее - туман. В сухую погоду видимость может ухудшаться дымом, пылью или мглою.
Явления - указаны атмосферные явления, наблюдавшиеся в срок или в последний час перед сроком; фигурными скобками обозначены явления, наблюдавшиеся между сроками (за 1-3 часа до срока); квадратными скобками обозначены град или гололедные отложения с указанием их диаметра в мм.
Облачность - указаны через наклонную черту общая и нижняя облачность в баллах и высота нижней границы облаков в метрах; квадратными скобками обозначены формы облаков: Ci - перистые, Cs - перисто-слоистые, Cc - перисто-кучевые, Ac - высококучевые, As - высокослоистые, Sc - слоисто-кучевые, Ns - слоисто-дождевые, Cu - кучевые, Cb - кучево-дождевые. Подробнее классификацию облаков см. в Атласе облаков (PDF).
T - Температура воздуха - температура, измеренная на высоте 2 м над землей.
Td - Температура точки росы - температура, при понижении до которой содержащийся в воздухе водяной пар достигнет насыщения.
f - Относительная влажность воздуха - влажноcть воздуха, измеренная на высоте 2 м над землей.
Te - Эффективная температура - температура, которую ощущает одетый по сезону человек в тени. Характеристика душности погоды. При расчете учитывается влияние влажности воздуха и скорости ветра на теплоощущения человека.
Tes - Эффективная температура на солнце - температура, которую ощущает человек, с поправкой на солнечный нагрев. Характеристика знойности погоды. Зависит от высоты солнца над горизонтом, облачности и скорости ветра. Ночью, в пасмурную погоду, а также при ветре 12 м/с и более поправка равна нулю.
P - Атмосферное давление - приведенное к уровню моря атмосферное давление.
Po - Атмосферное давление - измеренное на уровне метеостанции атмосферное давление.
Tmin - Минимальная температура - минимум температуры воздуха на высоте 2 м над землей.
Tmax - Максимальная температура - максимум температуры воздуха на высоте 2 м над землей.
R - Количество осадков - Количество выпавших осадков за период времени, мм. При наведении курсора мыши на число - период времени, за который выпало указанное количество осадков.
R24 - Количество осадков - Количество выпавших осадков за 24 часа, мм.
S - Снежный покров - Высота снежного покрова, см. При наведении курсора мыши на число - состояние снежного покрова и степень покрытия местности в баллах.